{"data":{"norad_id":62816,"intl_designator":"2025-018L","name":"STARLINK-32854","alt_names":[],"object_type":"PAYLOAD","status":"ACTIVE","operator":null,"country":"US","launch_date":"2025-01-24","launch_site_code":"AFWTR","launch_vehicle":null,"mission":null,"orbit_class":"UNKNOWN","rcs_meters":null,"size_class":null,"mass_kg":null,"dimensions":null,"purposes":["comms"],"wikipedia_slug":null,"has_3d_model":false,"image_url":null,"decayed_at":null,"tle_current":{"epoch":"2026-05-24T21:12:38.155680Z","epoch_age_seconds":88266,"freshness":"FRESH","line1":"1 62816U 25018L   26144.88377495  .00005626  00000+0  20196-3 0  9996","line2":"2 62816  53.1604 315.7135 0001125  87.4056 272.7073 15.30193908 74826","mean_motion":15.30193908,"eccentricity":0.0001125,"inclination_deg":53.1604,"raan_deg":315.7135,"arg_perigee_deg":87.4056,"mean_anomaly_deg":272.7073,"bstar":0.00020196,"rev_number":7482,"period_min":94.105720358155,"perigee_km":474.46225493943,"apogee_km":476.00426324773,"semimajor_km":6853.3702590936,"source":"CELESTRAK","updated_at":"2026-05-25T13:38:19.775071Z"}}}